FW2651 Weather Reports


Display with metric or nautical units.
time (UTC)temp
F
wind
direction
speed
MPH
gust
MPH
rain 1hr
in
rain 24hr
in
rain mn
in
humidity
%
barometer
mb
20260906031550 75 223 0.0 0.0 0.00 0.00 0.00 87 1009.7
20260906030047 75 223 0.0 0.0 0.00 0.00 0.00 86 1009.6
20260906024540 75 223 0.0 0.0 0.00 0.00 0.00 87 1009.5
20260906023033 75 223 0.0 0.0 0.00 0.00 0.00 86 1009.0
20260906021528 76 223 0.0 0.0 0.00 0.00 0.00 85 1008.9
20260906020120 76 245 0.0 0.0 0.00 0.00 0.00 84 1008.8
20260906014514 77 244 0.0 0.0 0.00 0.00 0.00 84 1008.5
20260906013007 77 244 0.0 0.0 0.00 0.00 0.00 83 1008.3
20260906011501 78 360 0.0 0.0 0.00 0.00 0.00 80 1008.4
20260906010055 79 360 0.0 0.0 0.00 0.00 0.00 78 1008.5
20260906004551 79 360 0.0 0.0 0.00 0.00 0.00 77 1008.7
20260906003050 80 360 0.0 0.0 0.00 0.00 0.00 75 1008.6
20260906001546 81 360 0.0 0.0 0.00 0.00 0.00 72 1008.6
20260906000040 82 360 0.0 0.0 0.00 0.00 0.00 69 1008.7
20260905234533 83 360 0.0 0.0 0.00 0.00 0.00 67 1008.7
20260905233025 85 360 0.0 0.0 0.00 0.00 0.00 65 1008.5
20260905231521 85 290 0.0 0.0 0.00 0.00 0.00 65 1008.2
20260905230113 85 360 0.0 0.0 0.00 0.00 0.00 65 1008.3
20260905224509 84 290 0.0 1.0 0.00 0.00 0.00 67 1008.5
20260905223113 83 360 0.0 0.0 0.00 0.00 0.00 67 1008.3
20260905221550 82 360 0.0 0.0 0.00 0.00 0.00 68 1008.5
20260905220049 81 360 0.0 0.0 0.00 0.00 0.00 70 1008.7
20260905214548 81 288 0.0 0.0 0.00 0.00 0.00 71 1008.7
20260905213041 82 360 0.0 1.0 0.00 0.00 0.00 69 1008.7
20260905211631 83 280 0.0 1.0 0.00 0.00 0.00 66 1008.8
20260905210038 81 360 0.0 2.0 0.00 0.00 0.00 70 1008.8
20260905204515 78 236 0.0 5.0 0.00 0.00 0.00 73 1009.1
20260905203007 76 216 0.0 4.0 0.00 0.00 0.00 76 1009.3
20260905201559 75 360 2.0 15.0 0.00 0.00 0.00 79 1009.7
20260905201502 75 217 2.0 15.0 0.00 0.00 0.00 79 1009.7
20260905200054 77 213 1.0 7.0 0.00 0.00 0.00 76 1009.6
20260905194550 78 360 0.0 5.0 0.00 0.00 0.00 78 1009.6
20260905193039 80 360 0.0 7.0 0.00 0.00 0.00 72 1009.7
20260905191534 80 144 0.0 1.0 0.00 0.00 0.00 73 1009.7
20260905190028 81 155 1.0 17.0 0.00 0.00 0.00 71 1010.1
20260905184528 86 360 0.0 5.0 0.00 0.00 0.00 66 1009.9
20260905183015 86 360 0.0 3.0 0.00 0.00 0.00 59 1009.8
20260905181507 85 360 0.0 4.0 0.00 0.00 0.00 61 1009.8
20260905180001 90 360 8.0 20.0 0.00 0.00 0.00 53 1010.0
20260905174549 91 360 0.0 0.0 0.00 0.00 0.00 55 1009.8
20260905173105 88 22 0.0 0.0 0.00 0.00 0.00 57 1010.0
20260905171547 87 23 0.0 11.0 0.00 0.00 0.00 60 1010.0
20260905170046 88 360 0.0 4.0 0.00 0.00 0.00 57 1010.2
20260905164536 90 17 0.0 5.0 0.00 0.00 0.00 56 1010.4
20260905163028 90 360 0.0 0.0 0.00 0.00 0.00 57 1010.6
20260905161520 90 360 0.0 0.0 0.00 0.00 0.00 56 1010.8
20260905160014 90 360 0.0 0.0 0.00 0.00 0.00 56 1010.8
20260905154502 88 360 0.0 0.0 0.00 0.00 0.00 58 1010.8
20260905153056 87 40 0.0 0.0 0.00 0.00 0.00 59 1010.9
20260905151548 85 38 0.0 0.0 0.00 0.00 0.00 64 1011.1
20260905150041 83 42 0.0 0.0 0.00 0.00 0.00 67 1011.1
20260905144532 83 360 0.0 0.0 0.00 0.00 0.00 66 1011.1
20260905143022 81 40 0.0 0.0 0.00 0.00 0.00 68 1011.2
20260905141514 81 360 0.0 0.0 0.00 0.00 0.00 69 1011.3
20260905140110 80 360 0.0 0.0 0.00 0.00 0.00 71 1011.3
20260905134658 79 36 0.0 0.0 0.00 0.00 0.00 76 1011.4
20260905133049 78 36 0.0 0.0 0.00 0.00 0.00 77 1011.5
20260905131641 77 36 0.0 0.0 0.00 0.00 0.00 80 1011.6
20260905130033 76 36 0.0 0.0 0.00 0.00 0.00 82 1011.7
20260905124526 75 39 0.0 0.0 0.00 0.00 0.00 85 1011.8
20260905123017 74 40 0.0 0.0 0.00 0.00 0.00 86 1011.6
20260905121508 73 360 0.0 0.0 0.00 0.00 0.00 90 1011.4
20260905120001 72 40 0.0 0.0 0.00 0.00 0.00 91 1011.2
20260905114600 71 40 0.0 0.0 0.00 0.00 0.00 92 1011.1
20260905113049 71 40 0.0 0.0 0.00 0.00 0.00 91 1010.8
20260905111542 71 40 0.0 0.0 0.00 0.00 0.00 92 1010.6
20260905110037 71 41 0.0 0.0 0.00 0.00 0.00 91 1010.5
20260905104531 71 40 0.0 0.0 0.00 0.00 0.00 91 1010.5
20260905103023 71 360 0.0 0.0 0.00 0.00 0.00 92 1010.4
20260905101519 71 41 0.0 0.0 0.00 0.00 0.00 91 1010.2
20260905100012 71 41 0.0 0.0 0.00 0.00 0.00 91 1010.2
20260905094500 71 41 0.0 0.0 0.00 0.00 0.00 91 1010.2
20260905093155 71 41 0.0 0.0 0.00 0.00 0.00 91 1009.9
20260905091557 72 41 0.0 0.0 0.00 0.00 0.00 91 1009.9
20260905090042 72 41 0.0 0.0 0.00 0.00 0.00 91 1009.9
20260905084540 72 41 0.0 0.0 0.00 0.00 0.00 90 1010.0
20260905083135 72 40 0.0 0.0 0.00 0.00 0.00 89 1010.2
20260905081519 72 41 0.0 0.0 0.00 0.00 0.00 90 1010.2
20260905080014 72 40 0.0 0.0 0.00 0.00 0.00 90 1010.3
20260905074505 73 41 0.0 0.0 0.00 0.00 0.00 89 1010.3
20260905073157 73 40 0.0 0.0 0.00 0.00 0.00 90 1010.5
20260905071551 73 360 0.0 0.0 0.00 0.00 0.00 89 1010.6
20260905070144 73 34 0.0 0.0 0.00 0.00 0.00 89 1010.7
20260905064537 74 35 0.0 0.0 0.00 0.00 0.00 88 1010.7
20260905063028 74 34 0.0 0.0 0.00 0.00 0.00 88 1010.7
20260905061520 74 34 0.0 0.0 0.00 0.00 0.00 87 1010.7
20260905060014 74 34 0.0 0.0 0.00 0.00 0.00 88 1010.7
20260905054514 74 35 0.0 0.0 0.00 0.00 0.00 88 1010.7
20260905053059 75 35 0.0 0.0 0.00 0.00 0.00 87 1010.7
20260905051650 75 34 0.0 0.0 0.00 0.00 0.00 85 1010.8
20260905050041 76 34 0.0 0.0 0.00 0.00 0.00 86 1010.8
20260905044535 76 35 0.0 0.0 0.00 0.00 0.00 86 1010.9
20260905043130 76 34 0.0 0.0 0.00 0.00 0.00 84 1010.9
20260905041526 77 34 0.0 0.0 0.00 0.00 0.00 83 1010.8
20260905040016 78 36 0.0 0.0 0.00 0.00 0.00 82 1011.0
20260905034609 78 34 0.0 0.0 0.00 0.00 0.00 82 1010.9
20260905033103 77 35 0.0 0.0 0.00 0.00 0.00 81 1010.8